This demonstration page uses our WeatherBlox Daily Observations layout. Learn more.

Left ArrowRight Arrow

Hourly Observations for January 17, 2019

Temp ( °F °C ) Dew Point ( °F °C ) Humidity (%) Winds ( mph kmh ) Pressure ( in mb ) Visibility ( mi km ) Precip ( " mm )
12:59 am 00:59 Mostly Cloudy 40 4.4 29 -1.7 65 65 NE 13 20 30.31 1026 10 16 0.00 0.00
1:59 am 01:59 Mostly Cloudy 40 4.4 28 -2.2 63 63 NE 7 11 30.32 1027 10 16 0.00 0.00
2:59 am 02:59 Mostly Cloudy 38 3.3 28 -2.2 68 68 NE 8 13 30.33 1027 10 16 0.00 0.00
3:59 am 03:59 Mostly Cloudy 40 4.4 27 -2.8 60 60 NE 10 17 30.33 1027 10 16 0.00 0.00
4:59 am 04:59 Mostly Cloudy 40 4.4 27 -2.8 60 60 NE 9 15 30.34 1027 10 16 0.00 0.00
5:59 am 05:59 Mostly Cloudy 40 4.4 25 -3.9 55 55 ENE 10 17 30.34 1027 10 16 0.00 0.00
6:59 am 06:59 Mostly Cloudy 39 3.9 26 -3.3 60 60 NE 8 13 30.35 1028 10 16 0.00 0.00
7:59 am 07:59 Mostly Cloudy 40 4.4 26 -3.3 58 58 NE 6 9 30.36 1028 10 16 0.00 0.00
8:59 am 08:59 Mostly Cloudy 41 5 28 -2.2 60 60 ENE 8 13 30.36 1028 10 16 0.00 0.00
9:59 am 09:59 Mostly Cloudy 42 5.6 29 -1.7 60 60 ENE 12 19 30.37 1029 10 16 0.00 0.00
10:59 am 10:59 Cloudy 43 6.1 28 -2.2 56 56 E 9 15 30.37 1029 10 16 0.00 0.00
11:59 am 11:59 Cloudy 43 6.1 28 -2.2 56 56 E 12 19 30.34 1027 10 16 0.00 0.00
12:59 pm 12:59 Cloudy 43 6.1 28 -2.2 56 56 E 9 15 30.30 1026 10 16 0.00 0.00
1:59 pm 13:59 Mostly Cloudy 45 7.2 28 -2.2 52 52 E 10 17 30.29 1026 10 16 0.00 0.00
2:59 pm 14:59 Partly Cloudy 44 6.7 27 -2.8 51 51 ENE 9 15 30.28 1025 10 16 0.00 0.00
3:59 pm 15:59 Mostly Cloudy 43 6.1 30 -1.1 60 60 ENE 9 15 30.27 1025 10 16 0.00 0.00
4:59 pm 16:59 Cloudy 42 5.6 30 -1.1 62 62 E 8 13 30.26 1025 10 16 0.00 0.00
5:59 pm 17:59 Cloudy 41 5 30 -1.1 65 65 E 6 9 30.24 1024 10 16 0.00 0.00
6:59 pm 18:59 Cloudy 41 5 31 -0.6 67 67 E 6 9 30.23 1024 10 16 0.00 0.00
7:59 pm 19:59 Cloudy 41 5 32 0 70 70 E 6 9 30.21 1023 10 16 0.00 0.00
8:59 pm 20:59 Cloudy 41 5 33 0.6 73 73 Calm 30.20 1023 10 16 0.00 0.00
9:59 pm 21:59 Cloudy 41 5 33 0.6 73 73 Calm 30.19 1022 10 16 0.00 0.00
10:59 pm 22:59 Cloudy 41 5 34 1.1 76 76 Calm 30.18 1022 10 16 0.00 0.00
11:59 pm 23:59 Cloudy 40 4.4 35 1.7 83 83 Calm 30.16 1021 10 16 0.00 0.00

Powered by AerisWeather